Simultaneous Nadir Overpasses (SNOs) Predictions

Prediction of SNOs over PacNW region [( 10.00, 139.50) to ( 22.70, 165.60)] between NOAA-19 and NPP Satellites:

Table of predicted SNOs over PacNW region for the next 30.0 days since TLE Epoch: 5/25/2014
Index Date (NOAA-19) Time (NOAA-19) NOAA-19 Lat,Lon Date (NPP) Time (NPP) NPP Lat,Lon Distance(km) Time Diff (sec)
1 06/03/2014 03:49:48 18.17, 147.31 06/03/2014 03:51:05 16.96, 142.26 552.14 77
2 06/03/2014 16:26:15 13.00, 143.22 06/03/2014 16:23:30 13.90, 139.03 464.35 165
3 06/16/2014 03:07:52 22.03, 157.25 06/16/2014 03:08:03 20.91, 152.42 514.91 11
4 06/16/2014 15:44:01 10.04, 153.44 06/16/2014 15:40:25 10.14, 149.28 455.53 216




NCC Satellite Simultaneous Nadir Overpasses (SNOs) Prediction Service
